DW6120 Weather Reports


time (UTC)temp
F
wind
direction
speed
knots
gust
knots
rain 1hr
in
rain 24hr
in
rain mn
in
humidity
%
barometer
mb
20260508213027 70 313 3.5 13.0 0.00 0.00 0.00 26 1010.6
20260508211527 69 25 4.3 11.3 0.00 0.00 0.00 29 1010.8
20260508210023 69 24 4.3 10.4 0.00 0.00 0.00 28 1010.9
20260508204523 68 360 3.5 11.3 0.00 0.00 0.00 27 1011.1
20260508203021 69 347 6.1 12.2 0.00 0.00 0.00 29 1011.3
20260508201526 67 17 4.3 10.4 0.00 0.00 0.00 31 1011.4
20260508200023 67 292 8.7 12.2 0.00 0.00 0.00 29 1011.5
20260508194520 67 338 6.1 13.0 0.00 0.00 0.00 29 1011.6
20260508193020 67 355 4.3 10.4 0.00 0.00 0.00 29 1011.7
20260508191524 67 348 3.5 8.7 0.00 0.00 0.00 32 1011.9
20260508190028 66 331 5.2 12.2 0.00 0.00 0.00 31 1012.1
20260508184518 66 336 2.6 10.4 0.00 0.00 0.00 31 1012.3
20260508183017 66 311 5.2 10.4 0.00 0.00 0.00 32 1012.2
20260508181528 65 331 5.2 11.3 0.00 0.00 0.00 36 1012.3
20260508180018 65 347 2.6 9.6 0.00 0.00 0.00 37 1012.4
20260508174517 65 335 4.3 9.6 0.00 0.00 0.00 37 1012.5
20260508173021 65 304 6.1 9.6 0.00 0.00 0.00 34 1012.4
20260508171523 65 32 1.7 7.0 0.00 0.00 0.00 32 1012.4
20260508170013 65 16 0.0 7.8 0.00 0.00 0.00 32 1012.2
20260508164513 66 292 2.6 7.8 0.00 0.00 0.00 32 1012.1
20260508163017 66 22 0.0 8.7 0.00 0.00 0.00 31 1012.1
20260508161514 64 304 3.5 7.8 0.00 0.00 0.00 31 1012.0
20260508160013 66 325 1.7 5.2 0.00 0.00 0.00 30 1011.9
20260508154509 64 236 0.9 2.6 0.00 0.00 0.00 37 1011.9
20260508153007 63 174 0.0 1.7 0.00 0.00 0.00 38 1011.8
20260508151505 62 138 0.0 2.6 0.00 0.00 0.00 42 1011.7
20260508150100 61 138 0.0 0.9 0.00 0.00 0.00 41 1011.8
20260508143102 56 138 1.7 4.3 0.00 0.00 0.00 48 1011.8
20260508141614 52 110 1.7 3.5 0.00 0.00 0.00 53 1011.6
20260508140052 51 79 1.7 3.5 0.00 0.00 0.00 53 1011.5
20260508134559 52 140 0.0 3.5 0.00 0.00 0.00 53 1011.5
20260508133046 52 84 0.9 4.3 0.00 0.00 0.00 50 1011.1
20260508131547 53 150 1.7 3.5 0.00 0.00 0.00 48 1011.2
20260508130045 53 122 1.7 7.0 0.00 0.00 0.00 45 1011.0
20260508124550 53 88 0.0 7.8 0.00 0.00 0.00 45 1010.7
20260508123048 53 42 0.9 7.8 0.00 0.00 0.00 46 1010.7
20260508121541 53 94 4.3 6.1 0.00 0.00 0.00 45 1010.6
20260508120039 52 103 4.3 6.1 0.00 0.00 0.00 46 1010.6
20260508114538 53 90 2.6 4.3 0.00 0.00 0.00 47 1010.7
20260508113047 54 84 0.9 5.2 0.00 0.00 0.00 46 1010.5
20260508111537 53 146 0.9 3.5 0.00 0.00 0.00 46 1010.5
20260508110036 55 88 1.7 4.3 0.00 0.00 0.00 46 1010.4
20260508104536 54 74 1.7 6.1 0.00 0.00 0.00 43 1010.3
20260508103038 54 140 2.6 4.3 0.00 0.00 0.00 47 1010.4
20260508101532 56 71 0.9 3.5 0.00 0.00 0.00 44 1010.3
20260508100027 56 68 0.0 7.0 0.00 0.00 0.00 44 1010.3
20260508094528 56 106 1.7 3.5 0.00 0.00 0.00 44 1010.2
20260508093027 56 117 3.5 7.0 0.00 0.00 0.00 43 1010.1
20260508091535 56 94 2.6 7.0 0.00 0.00 0.00 45 1010.1
20260508090035 55 70 1.7 3.5 0.00 0.00 0.00 47 1010.1
20260508084519 56 45 0.0 1.7 0.00 0.00 0.00 43 1010.4
20260508083017 57 45 0.9 2.6 0.00 0.00 0.00 42 1010.3
20260508081518 58 109 1.7 6.1 0.00 0.00 0.00 41 1010.3
20260508080027 58 80 1.7 7.0 0.00 0.00 0.00 41 1010.3
20260508074526 59 115 1.7 3.5 0.00 0.00 0.00 40 1010.4
20260508073016 59 67 2.6 7.8 0.00 0.00 0.00 40 1010.3
20260508071523 59 87 6.1 8.7 0.00 0.00 0.00 41 1010.3
20260508070013 58 86 5.2 7.8 0.00 0.00 0.00 42 1010.3
20260508064515 57 63 0.9 7.0 0.00 0.00 0.00 43 1010.5
20260508063010 57 82 3.5 7.8 0.00 0.00 0.00 44 1010.5
20260508061510 57 101 4.3 7.0 0.00 0.00 0.00 44 1010.4
20260508060008 57 94 3.5 6.1 0.00 0.00 0.00 44 1010.3
20260508054509 58 95 3.5 6.1 0.00 0.00 0.00 43 1010.1
20260508053006 58 101 2.6 5.2 0.00 0.00 0.00 43 1010.1
20260508051505 59 163 1.7 2.6 0.00 0.00 0.00 42 1010.2
20260508050005 59 86 5.2 7.8 0.00 0.00 0.00 41 1010.1
20260508044504 59 92 2.6 7.0 0.00 0.00 0.00 41 1010.3
20260508043004 59 124 0.9 3.5 0.00 0.00 0.00 40 1010.4
20260508041502 60 114 0.9 2.6 0.00 0.00 0.00 40 1010.3
20260508040006 61 69 5.2 10.4 0.00 0.00 0.00 39 1010.1
20260508034502 60 91 5.2 8.7 0.00 0.00 0.00 40 1010.0
20260508033001 60 139 3.5 7.8 0.00 0.00 0.00 41 1010.0
20260508031503 59 105 2.6 5.2 0.00 0.00 0.00 42 1010.0
20260508030001 61 76 3.5 7.8 0.00 0.00 0.00 39 1009.9
20260508024601 62 92 5.2 7.0 0.00 0.00 0.00 39 1009.9
20260508023101 63 106 4.3 6.1 0.00 0.00 0.00 37 1009.8
20260508021524 68 84 1.7 3.5 0.00 0.00 0.00 33 1009.8
20260508020017 69 294 0.9 2.6 0.00 0.00 0.00 29 1009.8
20260508014516 69 311 1.7 4.3 0.00 0.00 0.00 29 1009.8
20260508013027 70 318 2.6 5.2 0.00 0.00 0.00 28 1009.9
20260508011559 72 111 2.6 6.1 0.00 0.00 0.00 27 1009.9
20260508010056 72 206 2.6 6.1 0.00 0.00 0.00 27 1010.1
20260508004609 69 125 0.0 6.1 0.00 0.00 0.00 29 1010.2
20260508003053 68 124 1.7 4.3 0.00 0.00 0.00 30 1010.3
20260508001552 68 334 0.0 4.3 0.00 0.00 0.00 30 1010.6
20260508000050 69 24 0.0 4.3 0.00 0.00 0.00 30 1010.8
20260507234550 69 37 0.9 5.2 0.00 0.00 0.00 30 1011.0
20260507233048 70 9 2.6 7.0 0.00 0.00 0.00 31 1011.2
20260507231552 69 308 3.5 9.6 0.00 0.00 0.00 30 1011.5
20260507230048 69 119 0.9 7.8 0.00 0.00 0.00 30 1011.6
20260507224543 71 348 4.3 9.6 0.00 0.00 0.00 29 1011.9
20260507223041 70 286 3.5 6.1 0.00 0.00 0.00 30 1012.1
20260507221542 70 16 3.5 7.8 0.00 0.00 0.00 30 1012.3
20260507220039 69 316 2.6 7.8 0.00 0.00 0.00 30 1012.6
20260507214557 69 19 2.6 7.8 0.00 0.00 0.00 31 1012.7